User: anonymous   Login
Location: Bosmont
(49.7318°N, 3.8587°E)
Time: 00:53:08
(UTC+00:00)
Language:

COSMOS 2428 - Orbit

View from above orbital plane
View from above orbital plane
View from above satellite
View from above satellite

Ground track
Ground track

The orbit data is extracted from the following two-line orbital elements,

1 31792U 07029A   23155.43219599 -.00000145  00000-0 -52485-4 0  9998
2 31792  70.9292 161.5548 0009398 255.8713 104.1363 14.12546027821554
Epoch (UTC): 04 June 2023 10:22:21
Eccentricity: 0.0009398
inclination: 70.9292°
perigee height: 844 km
apogee height: 857 km
right ascension of ascending node: 161.5548°
argument of perigee: 255.8713°
revolutions per day: 14.12546027
mean anomaly at epoch: 104.1363°
orbit number at epoch: 82155

The dashed part of the orbit path shows where the satellite is in the earth's shadow,  

DLR